Tracking 29892 objects as of 21-Nov-2024
HD Live streaming from Space Station
objects crossing your sky now

ATLAS 5 CENTAUR R/B

Track ATLAS 5 CENTAUR R/B now!


NORAD ID: 40295
Int'l Code: 2014-068B
Perigee: 20,655.8 km
Apogee: 21,324.1 km
Inclination: 56.8 °
Period: 750.7 minutes
Semi major axis: 27360 km
RCS: Unknown
Launch date: October 29, 2014
Source: United States (US)
Launch site: AIR FORCE EASTERN TEST RANGE (AFETR)

Note: This is a ROCKET BODY
Your satellite tracking list
Your tracking list is empty




NASA's NSSDC Master Catalog

Two Line Element Set (TLE):
1 40295U 14068B   24324.53033465 -.00000049  00000-0  00000+0 0  9996
2 40295  56.7669  66.9383 0122138 344.5331  15.0959  1.91825483 70496
Source of the keplerian elements: AFSPC